Tracking 29892 objects as of 21-Nov-2024
HD Live streaming from Space Station
objects crossing your sky now

CZ-6A DEB

Track CZ-6A DEB now!
10-day predictions


NORAD ID: 56656
Int'l Code: 2022-151AGG
Perigee: 822.0 km
Apogee: 1,002.6 km
Inclination: 98.8 °
Period: 103.1 minutes
Semi major axis: 7283 km
RCS: Unknown
Launch date: November 11, 2022
Source: People's Republic of China (PRC)
Launch site: Taiyaun Space Center, China (TSC)

Note: This is SATELLITE DEBRIS
Your satellite tracking list
Your tracking list is empty




NASA's NSSDC Master Catalog

Two Line Element Set (TLE):
1 56656U 22151AGG 24325.80195839  .00001714  00000-0  11859-2 0  9997
2 56656  98.8271 306.0506 0123963 219.4041 139.8056 13.96727250 80282
Source of the keplerian elements: AFSPC